{"data":{"norad_id":68088,"epoch":"2026-09-19T19:39:23.360832Z","epoch_age_seconds":114552,"freshness":"FRESH","line1":"1 68088U 26042V   26262.81902038  .00012937  00000+0  39335-3 0  9990","line2":"2 68088  53.1591 353.0180 0000948  65.5861 294.5241 15.34400438 32080","mean_motion":15.34400438,"eccentricity":9.48e-5,"inclination_deg":53.1591,"raan_deg":353.018,"arg_perigee_deg":65.5861,"mean_anomaly_deg":294.5241,"bstar":0.00039335,"rev_number":3208,"period_min":93.847731292162,"perigee_km":462.05342684775,"apogee_km":463.35044991047,"semimajor_km":6840.8389383791,"source":"CELESTRAK","updated_at":"2026-09-20T09:00:43.781792Z"}}